QPF
0.03 0.03 0.03 0.04 0.04 0.04 0.04 0.03 0.02 0.02 0.03 0.03 0.03 0.03 0.03 0.02 0.02 0.02 0.02 0.03 0.03 0.02 0.02 0.03 0.03 0.03 0.04 0.05 0.06 0.06 0.06 0.06 0.06 0.06 0.05 0.05 0.04 0.04 0.02 0.02 0.02 0.02 0.04
0.03 0.03 0.03 0.04 0.04 0.03 0.03 0.02 0.02 0.03 0.02 0.03 0.03 0.03 0.03 0.02 0.02 0.02 0.01 0.02 0.02 0.02 0.02 0.03 0.03 0.03 0.03 0.03 0.04 0.05 0.05 0.05 0.05 0.05 0.05 0.05 0.05 0.04 0.03 0.02 0.02 0.02 0.02
0.02 0.02 0.03 0.04 0.03 0.03 0.02 0.02 0.02 0.02 0.03 0.03 0.03 0.02 0.02 0.02 0.02 0.02 0.02 0.02 0.02 0.02 0.02 0.02 0.02 0.03 0.04 0.03 0.03 0.03 0.04 0.05 0.04 0.04 0.04 0.04 0.04 0.05 0.05 0.04 0.03 0.03 0.03
0.02 0.02 0.03 0.04 0.04 0.05 0.04 0.03 0.02 0.02 0.02 0.02 0.02 0.02 0.02 0.02 0.01 0.01 0.02 0.02 0.02 0.02 0.02 0.02 0.03 0.04 0.05 0.06 0.05 0.04 0.04 0.04 0.03 0.03 0.03 0.04 0.03 0.03 0.03 0.03 0.04 0.04 0.04
0.01 0.01 0.02 0.03 0.03 0.04 0.05 0.05 0.04 0.03 0.03 0.02 0.01 0.01 0.01 0.01 0.01 0.01 0.01 0.02 0.02 0.02 0.02 0.02 0.03 0.03 0.04 0.05 0.05 0.05 0.04 0.04 0.03 0.03 0.03 0.03 0.03 0.03 0.02 0.02 0.02 0.02 0.02
0.01 0.01 0.02 0.03 0.05 0.05 0.05 0.05 0.04 0.03 0.03 0.03 0.02 0.01 0.01 0.01 0.02 0.02 0.01 0.02 0.01 0.01 0.01 0.01 0.02 0.02 0.02 0.03 0.03 0.03 0.04 0.04 0.04 0.04 0.03 0.03 0.03 0.03 0.02 0.02 0.02 0.01 0.01
0.02 0.01 0.01 0.02 0.03 0.03 0.04 0.05 0.04 0.04 0.03 0.03 0.03 0.03 0.02 0.01 0.02 0.02 0.02 0.01 0.01 0.00 0.01 0.01 0.01 0.02 0.02 0.02 0.02 0.02 0.02 0.02 0.02 0.03 0.03 0.03 0.03 0.02 0.02 0.01 0.01 0.01 0.01
0.03 0.02 0.02 0.02 0.02 0.02 0.02 0.02 0.03 0.03 0.03 0.03 0.04 0.03 0.02 0.01 0.02 0.01 0.01 0.01 0.01 0.00 0.00 0.01 0.01 0.02 0.02 0.01 0.02 0.02 0.02 0.01 0.01 0.02 0.02 0.02 0.02 0.01 0.01 0.01 0.01 0.00 0.00
0.03 0.03 0.03 0.03 0.03 0.03 0.01 0.01 0.01 0.01 0.01 0.01 0.01 0.01 0.00 0.01 0.01 0.01 0.01 0.01 0.01 0.01 0.01 0.01 0.01 0.02 0.02 0.02 0.02 0.02 0.02 0.02 0.02 0.01 0.02 0.02 0.02 0.02 0.02 0.01 0.01 0.01 0.01
0.02 0.01 0.02 0.03 0.02 0.02 0.02 0.01 0.01 0.01 0.01 0.01 0.01 0.01 0.01 0.01 0.00 0.01 0.01 0.01 0.01 0.01 0.01 0.02 0.02 0.01 0.02 0.02 0.01 0.02 0.02 0.02 0.02 0.02 0.02 0.02 0.02 0.02 0.02 0.01 0.01 0.01 0.01
0.01 0.01 0.01 0.02 0.01 0.02 0.02 0.01 0.01 0.01 0.02 0.02 0.02 0.02 0.01 0.01 0.01 0.01 0.02 0.02 0.01 0.01 0.01 0.02 0.01 0.01 0.02 0.02 0.01 0.01 0.02 0.02 0.03 0.02 0.02 0.02 0.02 0.02 0.02 0.02 0.02 0.02 0.02
0.01 0.01 0.02 0.02 0.02 0.02 0.02 0.01 0.01 0.02 0.02 0.03 0.02 0.02 0.03 0.02 0.01 0.02 0.03 0.02 0.02 0.01 0.01 0.01 0.01 0.01 0.02 0.02 0.02 0.02 0.02 0.02 0.02 0.02 0.02 0.02 0.02 0.02 0.03 0.03 0.03 0.02 0.02
0.00 0.01 0.01 0.01 0.01 0.02 0.02 0.01 0.02 0.02 0.03 0.03 0.03 0.03 0.03 0.02 0.01 0.02 0.02 0.02 0.01 0.01 0.01 0.02 0.02 0.01 0.01 0.02 0.02 0.02 0.02 0.02 0.02 0.02 0.01 0.01 0.02 0.02 0.02 0.02 0.02 0.02 0.02
0.00 0.00 0.00 0.00 0.01 0.01 0.01 0.01 0.02 0.03 0.04 0.03 0.03 0.03 0.03 0.02 0.01 0.02 0.02 0.02 0.02 0.01 0.01 0.02 0.02 0.01 0.01 0.01 0.01 0.02 0.02 0.02 0.03 0.04 0.03 0.03 0.03 0.03 0.02 0.02 0.02 0.02 0.02
0.00 0.00 0.00 0.00 0.00 0.01 0.02 0.02 0.03 0.03 0.03 0.04 0.03 0.03 0.03 0.03 0.02 0.03 0.02 0.02 0.02 0.02 0.02 0.02 0.02 0.02 0.01 0.01 0.01 0.01 0.02 0.03 0.03 0.03 0.03 0.03 0.03 0.02 0.02 0.01 0.01 0.01 0.01
0.00 0.01 0.01 0.01 0.00 0.01 0.01 0.03 0.04 0.03 0.04 0.04 0.04 0.03 0.03 0.04 0.04 0.03 0.02 0.02 0.02 0.02 0.02 0.02 0.01 0.01 0.01 0.01 0.01 0.02 0.02 0.02 0.02 0.02 0.02 0.02 0.02 0.02 0.01 0.01 0.01 0.02 0.02
0.01 0.01 0.01 0.01 0.01 0.01 0.01 0.02 0.03 0.03 0.03 0.03 0.04 0.04 0.04 0.05 0.04 0.03 0.03 0.04 0.03 0.03 0.02 0.02 0.01 0.01 0.01 0.01 0.02 0.03 0.04 0.03 0.03 0.03 0.02 0.02 0.02 0.02 0.02 0.02 0.02 0.02 0.02
0.02 0.02 0.02 0.01 0.01 0.01 0.02 0.02 0.02 0.03 0.04 0.04 0.04 0.06 0.07 0.06 0.06 0.06 0.06 0.06 0.05 0.05 0.04 0.03 0.02 0.02 0.02 0.02 0.03 0.03 0.03 0.03 0.03 0.03 0.03 0.02 0.02 0.01 0.02 0.02 0.03 0.02 0.02
0.02 0.01 0.01 0.01 0.01 0.01 0.01 0.01 0.02 0.04 0.03 0.04 0.05 0.07 0.09 0.08 0.07 0.08 0.08 0.06 0.05 0.06 0.06 0.05 0.03 0.02 0.02 0.01 0.01 0.01 0.02 0.02 0.02 0.02 0.02 0.01 0.01 0.01 0.02 0.02 0.02 0.02 0.02
0.02 0.02 0.02 0.01 0.01 0.01 0.01 0.01 0.02 0.03 0.05 0.05 0.07 0.08 0.09 0.09 0.09 0.10 0.09 0.07 0.06 0.06 0.06 0.05 0.05 0.04 0.02 0.01 0.01 0.01 0.01 0.01 0.01 0.01 0.01 0.01 0.02 0.02 0.03 0.03 0.02 0.02 0.02
0.02 0.02 0.02 0.02 0.02 0.02 0.02 0.03 0.03 0.05 0.07 0.09 0.10 0.10 0.11 0.10 0.10 0.09 0.08 0.06 0.05 0.04 0.04 0.03 0.03 0.02 0.02 0.02 0.02 0.02 0.01 0.01 0.01 0.00 0.01 0.01 0.02 0.02 0.02 0.02 0.02 0.02 0.02
0.02 0.02 0.03 0.03 0.04 0.04 0.04 0.05 0.06 0.07 0.08 0.11 0.10 0.08 0.08 0.07 0.07 0.06 0.05 0.04 0.03 0.02 0.02 0.02 0.02 0.01 0.01 0.01 0.01 0.01 0.01 0.01 0.00 0.00 0.00 0.01 0.01 0.02 0.02 0.02 0.02 0.01 0.01
0.02 0.03 0.03 0.04 0.04 0.05 0.06 0.07 0.09 0.08 0.07 0.07 0.07 0.06 0.07 0.06 0.05 0.04 0.03 0.03 0.02 0.02 0.02 0.02 0.02 0.01 0.01 0.02 0.01 0.01 0.01 0.01 0.01 0.00 0.00 0.01 0.01 0.02 0.01 0.01 0.02 0.02 0.01
0.01 0.02 0.03 0.03 0.04 0.05 0.06 0.07 0.09 0.10 0.07 0.05 0.05 0.05 0.06 0.06 0.05 0.05 0.04 0.03 0.02 0.02 0.02 0.02 0.02 0.02 0.02 0.02 0.02 0.02 0.02 0.02 0.01 0.01 0.01 0.01 0.01 0.01 0.01 0.01 0.01 0.01 0.01
0.01 0.02 0.02 0.02 0.02 0.03 0.05 0.06 0.08 0.09 0.09 0.08 0.07 0.06 0.06 0.07 0.07 0.07 0.06 0.05 0.04 0.04 0.04 0.04 0.04 0.04 0.03 0.02 0.02 0.02 0.01 0.01 0.01 0.01 0.02 0.02 0.01 0.01 0.01 0.01 0.01 0.02 0.02
0.02 0.02 0.02 0.02 0.02 0.03 0.04 0.05 0.06 0.07 0.08 0.07 0.06 0.05 0.06 0.06 0.06 0.05 0.06 0.05 0.05 0.04 0.04 0.04 0.04 0.04 0.04 0.04 0.04 0.04 0.03 0.03 0.02 0.02 0.02 0.01 0.02 0.02 0.02 0.02 0.02 0.02 0.02
MSLP
1014.95 1015.55 1016.15 1016.73 1017.24 1017.68 1018.04 1018.35 1018.63 1018.90 1019.18 1019.47 1019.78 1020.09 1020.37 1020.62 1020.82 1020.96 1021.07 1021.15 1021.23 1021.31 1021.41 1021.53 1021.66 1021.79 1021.91 1021.99 1022.04 1022.06 1022.03 1021.96 1021.85 1021.71 1021.52 1021.29 1021.00 1020.65 1020.25 1019.79 1019.30 1018.78 1018.26
1015.35 1015.95 1016.56 1017.14 1017.66 1018.11 1018.49 1018.81 1019.09 1019.35 1019.60 1019.87 1020.13 1020.39 1020.64 1020.85 1021.03 1021.18 1021.30 1021.40 1021.50 1021.60 1021.71 1021.83 1021.96 1022.08 1022.18 1022.26 1022.31 1022.33 1022.32 1022.26 1022.17 1022.03 1021.83 1021.57 1021.23 1020.82 1020.34 1019.79 1019.21 1018.60 1018.01
1015.68 1016.30 1016.92 1017.51 1018.04 1018.50 1018.89 1019.23 1019.51 1019.76 1019.99 1020.22 1020.43 1020.65 1020.84 1021.02 1021.18 1021.32 1021.45 1021.57 1021.69 1021.82 1021.95 1022.08 1022.21 1022.32 1022.42 1022.49 1022.54 1022.56 1022.55 1022.51 1022.42 1022.29 1022.08 1021.80 1021.43 1020.97 1020.43 1019.81 1019.16 1018.48 1017.83
1015.93 1016.57 1017.20 1017.80 1018.34 1018.83 1019.25 1019.60 1019.90 1020.15 1020.37 1020.57 1020.75 1020.91 1021.06 1021.20 1021.33 1021.46 1021.59 1021.72 1021.87 1022.01 1022.16 1022.30 1022.43 1022.54 1022.62 1022.68 1022.71 1022.72 1022.70 1022.66 1022.57 1022.44 1022.23 1021.94 1021.55 1021.07 1020.50 1019.85 1019.15 1018.43 1017.74
1016.08 1016.75 1017.39 1018.00 1018.57 1019.08 1019.53 1019.93 1020.26 1020.53 1020.76 1020.95 1021.10 1021.22 1021.33 1021.43 1021.53 1021.63 1021.76 1021.89 1022.05 1022.21 1022.37 1022.52 1022.64 1022.73 1022.79 1022.82 1022.82 1022.80 1022.75 1022.69 1022.59 1022.45 1022.24 1021.95 1021.58 1021.10 1020.53 1019.88 1019.18 1018.46 1017.75
1016.15 1016.83 1017.48 1018.11 1018.70 1019.25 1019.75 1020.19 1020.57 1020.89 1021.14 1021.34 1021.47 1021.57 1021.64 1021.70 1021.77 1021.85 1021.96 1022.09 1022.25 1022.42 1022.58 1022.73 1022.84 1022.91 1022.93 1022.92 1022.87 1022.79 1022.71 1022.60 1022.48 1022.32 1022.12 1021.84 1021.49 1021.05 1020.51 1019.91 1019.24 1018.55 1017.85
1016.15 1016.83 1017.50 1018.14 1018.75 1019.34 1019.89 1020.39 1020.82 1021.19 1021.49 1021.70 1021.85 1021.93 1021.98 1022.00 1022.04 1022.09 1022.17 1022.30 1022.45 1022.62 1022.78 1022.92 1023.01 1023.05 1023.04 1022.97 1022.87 1022.73 1022.59 1022.43 1022.27 1022.10 1021.89 1021.64 1021.32 1020.93 1020.45 1019.91 1019.31 1018.67 1018.02
1016.08 1016.77 1017.44 1018.09 1018.72 1019.34 1019.93 1020.48 1020.98 1021.41 1021.75 1022.00 1022.15 1022.24 1022.27 1022.27 1022.27 1022.29 1022.36 1022.46 1022.61 1022.77 1022.93 1023.06 1023.14 1023.16 1023.11 1023.00 1022.84 1022.65 1022.44 1022.23 1022.03 1021.83 1021.62 1021.38 1021.10 1020.76 1020.36 1019.89 1019.36 1018.79 1018.20
1015.95 1016.65 1017.32 1017.97 1018.61 1019.25 1019.87 1020.47 1021.02 1021.50 1021.88 1022.17 1022.34 1022.43 1022.46 1022.44 1022.42 1022.42 1022.46 1022.55 1022.69 1022.85 1023.01 1023.14 1023.22 1023.22 1023.15 1023.00 1022.80 1022.56 1022.31 1022.05 1021.81 1021.58 1021.36 1021.14 1020.88 1020.59 1020.25 1019.85 1019.39 1018.89 1018.36
1015.78 1016.49 1017.16 1017.80 1018.44 1019.08 1019.73 1020.35 1020.93 1021.45 1021.87 1022.19 1022.39 1022.49 1022.51 1022.49 1022.46 1022.44 1022.47 1022.55 1022.68 1022.84 1023.00 1023.14 1023.22 1023.23 1023.15 1023.00 1022.77 1022.50 1022.21 1021.93 1021.65 1021.40 1021.17 1020.94 1020.71 1020.44 1020.14 1019.79 1019.39 1018.95 1018.48
1015.56 1016.28 1016.95 1017.59 1018.22 1018.86 1019.50 1020.13 1020.73 1021.27 1021.72 1022.06 1022.28 1022.40 1022.43 1022.42 1022.38 1022.37 1022.39 1022.47 1022.60 1022.76 1022.93 1023.08 1023.17 1023.19 1023.12 1022.97 1022.75 1022.47 1022.17 1021.87 1021.58 1021.31 1021.07 1020.83 1020.60 1020.35 1020.06 1019.74 1019.37 1018.97 1018.53
1015.27 1016.02 1016.70 1017.33 1017.96 1018.59 1019.22 1019.85 1020.44 1020.99 1021.45 1021.81 1022.05 1022.19 1022.25 1022.25 1022.23 1022.22 1022.25 1022.34 1022.47 1022.63 1022.81 1022.97 1023.08 1023.11 1023.06 1022.93 1022.72 1022.46 1022.17 1021.87 1021.58 1021.31 1021.06 1020.81 1020.57 1020.31 1020.02 1019.70 1019.34 1018.94 1018.52
1014.90 1015.69 1016.39 1017.04 1017.66 1018.28 1018.90 1019.51 1020.10 1020.64 1021.11 1021.48 1021.75 1021.92 1022.00 1022.04 1022.05 1022.06 1022.11 1022.20 1022.34 1022.51 1022.68 1022.84 1022.96 1023.00 1022.97 1022.86 1022.68 1022.45 1022.18 1021.90 1021.63 1021.36 1021.11 1020.85 1020.60 1020.32 1020.01 1019.68 1019.30 1018.90 1018.48
1014.45 1015.29 1016.03 1016.70 1017.34 1017.96 1018.56 1019.16 1019.73 1020.27 1020.73 1021.12 1021.41 1021.62 1021.75 1021.83 1021.88 1021.93 1022.00 1022.10 1022.24 1022.40 1022.56 1022.71 1022.82 1022.87 1022.85 1022.76 1022.60 1022.40 1022.17 1021.92 1021.67 1021.43 1021.18 1020.93 1020.67 1020.37 1020.04 1019.68 1019.28 1018.85 1018.41
1013.92 1014.81 1015.61 1016.32 1016.98 1017.61 1018.21 1018.80 1019.36 1019.89 1020.36 1020.76 1021.08 1021.33 1021.51 1021.63 1021.73 1021.82 1021.92 1022.04 1022.17 1022.32 1022.46 1022.59 1022.67 1022.71 1022.68 1022.60 1022.46 1022.29 1022.10 1021.89 1021.68 1021.46 1021.24 1021.01 1020.74 1020.44 1020.09 1019.70 1019.27 1018.82 1018.35
1013.31 1014.27 1015.12 1015.89 1016.59 1017.24 1017.85 1018.44 1019.00 1019.52 1019.99 1020.41 1020.76 1021.05 1021.28 1021.46 1021.60 1021.73 1021.86 1021.99 1022.12 1022.24 1022.35 1022.44 1022.49 1022.50 1022.46 1022.37 1022.25 1022.11 1021.95 1021.78 1021.62 1021.44 1021.26 1021.04 1020.79 1020.49 1020.14 1019.73 1019.28 1018.80 1018.32
1012.66 1013.68 1014.59 1015.42 1016.16 1016.84 1017.47 1018.07 1018.63 1019.15 1019.62 1020.05 1020.43 1020.75 1021.02 1021.25 1021.45 1021.61 1021.76 1021.90 1022.02 1022.12 1022.20 1022.25 1022.26 1022.23 1022.17 1022.08 1021.97 1021.85 1021.72 1021.60 1021.48 1021.35 1021.20 1021.03 1020.80 1020.52 1020.17 1019.76 1019.30 1018.81 1018.30
1011.99 1013.05 1014.02 1014.90 1015.69 1016.41 1017.06 1017.67 1018.23 1018.75 1019.23 1019.67 1020.06 1020.41 1020.71 1020.97 1021.20 1021.40 1021.57 1021.71 1021.82 1021.90 1021.95 1021.97 1021.95 1021.90 1021.82 1021.73 1021.63 1021.53 1021.44 1021.35 1021.28 1021.19 1021.09 1020.95 1020.76 1020.50 1020.17 1019.78 1019.32 1018.82 1018.31
1011.32 1012.41 1013.43 1014.35 1015.18 1015.93 1016.62 1017.23 1017.80 1018.32 1018.79 1019.23 1019.62 1019.98 1020.29 1020.58 1020.82 1021.04 1021.22 1021.36 1021.47 1021.54 1021.58 1021.58 1021.54 1021.48 1021.40 1021.32 1021.23 1021.16 1021.10 1021.06 1021.02 1020.98 1020.91 1020.81 1020.65 1020.43 1020.13 1019.75 1019.31 1018.82 1018.30
1010.68 1011.79 1012.82 1013.78 1014.64 1015.42 1016.12 1016.75 1017.31 1017.82 1018.29 1018.71 1019.09 1019.44 1019.76 1020.04 1020.29 1020.51 1020.69 1020.84 1020.95 1021.02 1021.06 1021.06 1021.03 1020.98 1020.92 1020.86 1020.81 1020.77 1020.75 1020.74 1020.73 1020.73 1020.69 1020.62 1020.49 1020.29 1020.02 1019.67 1019.26 1018.78 1018.28
1010.09 1011.18 1012.22 1013.19 1014.07 1014.87 1015.58 1016.21 1016.78 1017.27 1017.72 1018.12 1018.48 1018.81 1019.10 1019.37 1019.61 1019.82 1020.00 1020.15 1020.26 1020.34 1020.39 1020.42 1020.42 1020.40 1020.38 1020.36 1020.35 1020.35 1020.37 1020.39 1020.42 1020.44 1020.43 1020.38 1020.27 1020.09 1019.85 1019.53 1019.14 1018.69 1018.21
1009.55 1010.61 1011.64 1012.60 1013.48 1014.28 1015.00 1015.63 1016.18 1016.67 1017.10 1017.47 1017.80 1018.09 1018.36 1018.60 1018.81 1019.00 1019.17 1019.31 1019.43 1019.53 1019.61 1019.67 1019.71 1019.75 1019.78 1019.82 1019.86 1019.91 1019.97 1020.03 1020.08 1020.11 1020.11 1020.07 1019.98 1019.82 1019.59 1019.30 1018.95 1018.54 1018.08
1009.05 1010.07 1011.06 1012.00 1012.87 1013.67 1014.38 1015.00 1015.54 1016.01 1016.42 1016.77 1017.07 1017.33 1017.56 1017.76 1017.94 1018.11 1018.26 1018.39 1018.52 1018.63 1018.74 1018.84 1018.93 1019.03 1019.12 1019.22 1019.32 1019.42 1019.52 1019.61 1019.68 1019.73 1019.74 1019.70 1019.61 1019.47 1019.26 1019.00 1018.67 1018.30 1017.88
1008.60 1009.56 1010.50 1011.40 1012.25 1013.02 1013.71 1014.32 1014.86 1015.32 1015.71 1016.03 1016.31 1016.54 1016.73 1016.90 1017.05 1017.18 1017.31 1017.43 1017.55 1017.68 1017.81 1017.95 1018.09 1018.24 1018.39 1018.54 1018.70 1018.85 1018.99 1019.11 1019.20 1019.26 1019.28 1019.25 1019.17 1019.03 1018.85 1018.61 1018.32 1017.99 1017.61
1008.17 1009.07 1009.95 1010.80 1011.60 1012.34 1013.00 1013.60 1014.12 1014.57 1014.95 1015.26 1015.52 1015.73 1015.90 1016.04 1016.16 1016.27 1016.37 1016.47 1016.59 1016.71 1016.85 1017.01 1017.19 1017.38 1017.58 1017.78 1017.99 1018.18 1018.36 1018.50 1018.62 1018.70 1018.73 1018.71 1018.64 1018.52 1018.35 1018.14 1017.89 1017.60 1017.27
1007.77 1008.60 1009.41 1010.19 1010.93 1011.62 1012.25 1012.82 1013.33 1013.77 1014.14 1014.45 1014.70 1014.90 1015.06 1015.18 1015.28 1015.36 1015.44 1015.52 1015.62 1015.74 1015.88 1016.05 1016.24 1016.45 1016.69 1016.93 1017.17 1017.40 1017.61 1017.79 1017.93 1018.03 1018.08 1018.08 1018.03 1017.93 1017.79 1017.60 1017.38 1017.13 1016.84
Thickness
5686 5685 5684 5683 5682 5680 5678 5677 5676 5674 5673 5671 5670 5668 5667 5665 5664 5662 5661 5660 5658 5657 5656 5655 5654 5653 5651 5650 5648 5646 5644 5643 5641 5642 5641 5641 5640 5640 5640 5639 5639 5638 5638
5683 5681 5679 5678 5677 5676 5674 5673 5671 5670 5668 5667 5665 5664 5663 5662 5660 5659 5657 5656 5655 5653 5652 5651 5650 5650 5648 5647 5645 5643 5641 5639 5638 5637 5636 5635 5635 5635 5634 5634 5634 5634 5633
5678 5676 5674 5673 5672 5671 5670 5669 5667 5665 5663 5662 5660 5659 5658 5657 5656 5655 5654 5652 5651 5650 5649 5648 5647 5646 5644 5643 5641 5639 5638 5636 5633 5632 5631 5630 5629 5629 5628 5628 5628 5628 5629
5674 5671 5669 5668 5667 5667 5666 5664 5663 5661 5659 5658 5656 5654 5654 5653 5652 5651 5649 5648 5647 5646 5645 5645 5644 5643 5642 5640 5638 5636 5634 5632 5630 5628 5626 5625 5623 5622 5622 5622 5622 5622 5622
5669 5667 5665 5664 5663 5662 5660 5659 5658 5656 5655 5653 5651 5649 5649 5648 5648 5646 5645 5644 5643 5642 5641 5641 5641 5641 5640 5639 5637 5634 5631 5629 5627 5625 5623 5621 5619 5618 5617 5616 5616 5615 5616
5664 5662 5661 5659 5658 5657 5655 5654 5652 5650 5648 5646 5645 5644 5643 5644 5643 5642 5641 5639 5639 5638 5638 5638 5637 5637 5637 5636 5634 5632 5629 5627 5625 5622 5620 5618 5616 5614 5612 5611 5610 5609 5610
5659 5657 5656 5654 5653 5652 5651 5648 5646 5645 5643 5640 5639 5638 5637 5638 5637 5637 5636 5635 5634 5634 5634 5633 5633 5634 5633 5632 5630 5628 5626 5625 5624 5621 5618 5616 5614 5612 5609 5607 5605 5604 5604
5652 5651 5650 5649 5648 5646 5644 5643 5641 5639 5637 5636 5634 5634 5633 5633 5632 5631 5631 5630 5629 5629 5629 5629 5628 5629 5629 5627 5626 5623 5622 5621 5620 5618 5617 5615 5612 5610 5607 5604 5602 5600 5599
5646 5645 5644 5643 5642 5640 5639 5637 5636 5634 5632 5631 5630 5629 5628 5628 5627 5627 5626 5625 5624 5624 5625 5624 5624 5625 5624 5623 5620 5618 5617 5617 5616 5615 5613 5611 5608 5606 5603 5599 5597 5596 5596
5641 5640 5639 5638 5637 5636 5634 5633 5631 5629 5628 5626 5625 5624 5624 5624 5624 5622 5621 5620 5620 5620 5620 5620 5620 5620 5619 5618 5616 5614 5613 5613 5611 5609 5607 5605 5603 5601 5599 5597 5595 5592 5591
5636 5634 5633 5633 5632 5631 5629 5628 5626 5624 5623 5621 5620 5620 5620 5620 5619 5618 5617 5616 5616 5616 5616 5616 5617 5616 5614 5612 5611 5610 5609 5608 5606 5604 5602 5601 5599 5597 5596 5594 5592 5589 5588
5630 5629 5628 5627 5627 5627 5624 5622 5621 5619 5618 5617 5616 5616 5616 5615 5615 5614 5613 5612 5612 5612 5612 5612 5612 5611 5609 5608 5606 5605 5604 5602 5600 5599 5598 5597 5595 5594 5593 5591 5589 5587 5585
5624 5622 5622 5622 5621 5621 5619 5618 5616 5615 5614 5613 5612 5612 5612 5612 5611 5610 5609 5609 5608 5608 5609 5608 5607 5605 5604 5603 5602 5600 5599 5597 5596 5595 5594 5593 5592 5590 5588 5586 5585 5583 5582
5618 5617 5617 5616 5615 5615 5614 5614 5612 5611 5610 5610 5609 5609 5609 5608 5607 5607 5606 5605 5605 5604 5604 5603 5601 5600 5599 5598 5597 5596 5595 5594 5592 5591 5590 5589 5587 5585 5584 5583 5581 5579 5578
5613 5612 5611 5610 5610 5610 5609 5609 5609 5609 5608 5607 5607 5606 5605 5605 5606 5604 5602 5602 5601 5600 5598 5597 5596 5595 5595 5594 5593 5592 5591 5589 5588 5587 5586 5584 5583 5582 5580 5579 5576 5574 5574
5607 5607 5606 5605 5605 5605 5605 5604 5605 5605 5605 5605 5604 5603 5603 5602 5602 5600 5598 5597 5596 5594 5593 5593 5593 5592 5592 5591 5590 5589 5588 5587 5586 5584 5583 5581 5580 5578 5577 5574 5572 5570 5570
5603 5603 5602 5601 5600 5600 5600 5599 5600 5601 5602 5601 5600 5599 5598 5598 5597 5595 5594 5592 5590 5588 5589 5591 5591 5591 5590 5589 5587 5586 5586 5585 5583 5581 5580 5578 5576 5574 5572 5571 5569 5567 5567
5600 5599 5598 5597 5596 5596 5595 5595 5596 5596 5597 5597 5597 5595 5595 5594 5592 5591 5588 5586 5585 5584 5587 5588 5589 5588 5588 5586 5585 5583 5582 5581 5579 5578 5576 5574 5572 5570 5569 5568 5567 5565 5564
5595 5595 5594 5593 5592 5592 5591 5591 5591 5591 5592 5593 5593 5593 5591 5590 5588 5586 5584 5585 5586 5586 5586 5587 5587 5586 5586 5584 5583 5581 5580 5578 5576 5574 5572 5571 5569 5568 5567 5566 5564 5561 5560
5590 5590 5589 5588 5588 5588 5587 5587 5587 5588 5588 5589 5589 5589 5588 5586 5585 5584 5583 5584 5585 5586 5586 5586 5586 5585 5584 5582 5581 5579 5577 5575 5573 5571 5569 5568 5567 5566 5565 5563 5562 5560 5558
5585 5585 5584 5584 5584 5584 5584 5584 5584 5584 5584 5585 5586 5586 5584 5584 5585 5585 5584 5584 5585 5585 5585 5584 5583 5583 5581 5580 5579 5578 5576 5574 5571 5570 5568 5566 5564 5563 5562 5560 5559 5557 5555
5581 5581 5580 5580 5579 5579 5580 5580 5580 5580 5581 5582 5583 5583 5580 5582 5583 5583 5583 5583 5583 5583 5583 5582 5582 5581 5580 5579 5578 5576 5574 5572 5570 5568 5566 5564 5562 5560 5558 5557 5555 5553 5552
5576 5576 5575 5575 5575 5574 5575 5576 5576 5576 5577 5578 5578 5579 5578 5579 5580 5581 5582 5582 5582 5581 5581 5580 5580 5579 5578 5577 5576 5575 5573 5571 5569 5567 5565 5563 5561 5558 5556 5554 5552 5550 5549
5571 5571 5571 5570 5570 5570 5571 5572 5572 5573 5573 5574 5574 5574 5574 5575 5577 5578 5579 5580 5580 5579 5579 5578 5578 5578 5576 5575 5574 5573 5571 5570 5567 5565 5564 5562 5559 5556 5554 5552 5550 5548 5546
5565 5566 5566 5566 5566 5566 5567 5568 5569 5569 5569 5570 5570 5571 5571 5572 5573 5575 5576 5576 5576 5576 5576 5576 5575 5575 5574 5573 5572 5571 5569 5567 5565 5563 5561 5559 5557 5554 5551 5549 5547 5545 5543
5560 5560 5561 5561 5562 5563 5563 5563 5564 5565 5566 5566 5567 5568 5568 5569 5570 5571 5572 5572 5572 5572 5573 5573 5573 5572 5571 5570 5569 5568 5566 5564 5562 5560 5558 5556 5554 5551 5548 5546 5544 5542 5541